When you browse on this site, cookies collect data to enhance your experience and personalize the content and advertising you see.
Visit our Privacy Policy to learn more. By continuing to use the site, you agree to this use of cookies and data.
  • In United Kingdom
  • List of Countries
  • For 7 days
  • Water Temperature
  • Satellite Maps
  • Weather Map
  • Weather Widgets
  • user-avatar
    Login

    Hourly Weather Yerevan

    Today, 13 December, Thursday

    Time Temperature Precipitation Wind Pressure Humidity
    00:00 +8°C° 1.3 mm 3 mps 683 mmHg 78%
    01:00 +8°C° 1.4 mm 3 mps 683 mmHg 80%
    02:00 +8°C° 1.4 mm 3 mps 683 mmHg 81%
    03:00 +7°C° 1.4 mm 3 mps 683 mmHg 83%
    04:00 +7°C° 0.6 mm 3 mps 683 mmHg 83%
    05:00 +5°C° 0.6 mm 3 mps 684 mmHg 83%
    06:00 +5°C° 0.6 mm 3 mps 684 mmHg 82%
    07:00 +5°C° 0.1 mm 3 mps 684 mmHg 79%
    08:00 +7°C° 0.1 mm 3 mps 685 mmHg 76%
    09:00 +7°C° 0.1 mm 3 mps 686 mmHg 74%
    10:00 +8°C° 0.1 mm 3 mps 686 mmHg 69%
    11:00 +7°C° 0.1 mm 4 mps 686 mmHg 64%
    12:00 +8°C° 0.1 mm 4 mps 687 mmHg 60%
    13:00 +8°C° 0.1 mm 4 mps 687 mmHg 58%
    14:00 +7°C° 0.1 mm 4 mps 688 mmHg 56%
    15:00 +7°C° 0.1 mm 4 mps 688 mmHg 54%
    16:00 +7°C° 0 mm 3 mps 689 mmHg 56%
    17:00 +4°C° 0 mm 3 mps 690 mmHg 58%
    18:00 +4°C° 0 mm 2 mps 690 mmHg 60%
    19:00 +3°C° 0 mm 2 mps 691 mmHg 60%
    20:00 +3°C° 0 mm 2 mps 691 mmHg 61%
    21:00 +2°C° 0 mm 2 mps 692 mmHg 61%
    22:00 +2°C° 0 mm 2 mps 692 mmHg 61%
    23:00 +1°C° 0 mm 2 mps 693 mmHg 62%

    Tomorrow, 14 December, Friday

    Time Temperature Precipitation Wind Pressure Humidity
    00:00 +1°C° 0 mm 2 mps 693 mmHg 62%
    01:00 -1°C° 0 mm 2 mps 693 mmHg 62%
    02:00 -1°C° 0 mm 2 mps 693 mmHg 62%
    03:00 +1°C° 0 mm 1 mps 694 mmHg 62%
    04:00 -1°C° 0 mm 2 mps 694 mmHg 62%
    05:00 -1°C° 0 mm 2 mps 694 mmHg 62%
    06:00 -1°C° 0 mm 2 mps 694 mmHg 62%
    07:00 +1°C° 0 mm 2 mps 694 mmHg 61%
    08:00 +1°C° 0 mm 2 mps 694 mmHg 60%
    09:00 +2°C° 0 mm 2 mps 694 mmHg 60%
    10:00 +3°C° 0 mm 2 mps 693 mmHg 59%
    11:00 +4°C° 0 mm 2 mps 693 mmHg 59%
    12:00 +5°C° 0 mm 2 mps 692 mmHg 58%
    13:00 +4°C° 0.1 mm 3 mps 692 mmHg 60%
    14:00 +4°C° 0.1 mm 3 mps 692 mmHg 61%
    15:00 +5°C° 0.1 mm 3 mps 692 mmHg 63%
    16:00 +5°C° 0.1 mm 2 mps 692 mmHg 65%
    17:00 +4°C° 0.1 mm 2 mps 692 mmHg 68%
    18:00 +4°C° 0.1 mm 2 mps 693 mmHg 71%
    19:00 +3°C° 0.1 mm 2 mps 693 mmHg 71%
    20:00 +3°C° 0.1 mm 2 mps 693 mmHg 72%
    21:00 +3°C° 0.1 mm 2 mps 694 mmHg 72%
    22:00 +3°C° 0 mm 2 mps 694 mmHg 73%
    23:00 +2°C° 0 mm 2 mps 694 mmHg 73%

    Day after tomorrow, 15 December, Saturday

    Time Temperature Precipitation Wind Pressure Humidity
    00:00 +2°C° 0 mm 2 mps 694 mmHg 73%
    01:00 +2°C° 0 mm 2 mps 695 mmHg 73%
    02:00 +1°C° 0 mm 2 mps 695 mmHg 73%
    03:00 +1°C° 0 mm 2 mps 695 mmHg 73%
    04:00 +1°C° 0 mm 2 mps 695 mmHg 72%
    05:00 +1°C° 0 mm 2 mps 695 mmHg 72%
    06:00 -1°C° 0 mm 2 mps 695 mmHg 71%
    07:00 +2°C° 0 mm 1 mps 695 mmHg 69%
    08:00 +3°C° 0 mm 1 mps 696 mmHg 67%
    09:00 +3°C° 0 mm 1 mps 696 mmHg 65%
    10:00 +5°C° 0 mm 1 mps 696 mmHg 64%
    11:00 +6°C° 0 mm 1 mps 695 mmHg 62%
    12:00 +7°C° 0 mm 1 mps 695 mmHg 60%
    13:00 +7°C° 0 mm 1 mps 695 mmHg 60%
    14:00 +7°C° 0 mm 1 mps 694 mmHg 60%
    15:00 +7°C° 0 mm 1 mps 694 mmHg 59%
    16:00 +6°C° 0 mm 1 mps 695 mmHg 60%
    17:00 +5°C° 0 mm 1 mps 695 mmHg 61%
    18:00 +3°C° 0 mm 1 mps 695 mmHg 61%
    19:00 +3°C° 0 mm 1 mps 695 mmHg 61%
    20:00 +3°C° 0 mm 1 mps 695 mmHg 60%
    21:00 +3°C° 0 mm 1 mps 695 mmHg 60%
    22:00 +3°C° 0 mm 1 mps 695 mmHg 60%
    23:00 +3°C° 0 mm 1 mps 695 mmHg 60%

    16 December, Sunday

    Time Temperature Precipitation Wind Pressure Humidity
    00:00 +3°C° 0 mm 1 mps 695 mmHg 60%
    01:00 +2°C° 0 mm 1 mps 695 mmHg 59%
    02:00 +2°C° 0 mm 1 mps 695 mmHg 59%
    03:00 +2°C° 0 mm 1 mps 695 mmHg 59%
    04:00 +2°C° 0 mm 1 mps 695 mmHg 59%
    05:00 +2°C° 0 mm 1 mps 694 mmHg 59%
    06:00 +2°C° 0 mm 1 mps 694 mmHg 58%
    07:00 +3°C° 0 mm 1 mps 695 mmHg 57%
    08:00 +4°C° 0 mm 1 mps 695 mmHg 56%
    09:00 +5°C° 0 mm 1 mps 695 mmHg 55%
    10:00 +6°C° 0 mm 1 mps 695 mmHg 55%
    11:00 +6°C° 0 mm 2 mps 694 mmHg 54%
    12:00 +8°C° 0 mm 2 mps 694 mmHg 53%
    13:00 +8°C° 0 mm 2 mps 694 mmHg 53%
    14:00 +8°C° 0 mm 2 mps 693 mmHg 53%
    15:00 +8°C° 0 mm 2 mps 693 mmHg 53%
    16:00 +7°C° 0 mm 2 mps 693 mmHg 54%
    17:00 +6°C° 0 mm 2 mps 693 mmHg 55%
    18:00 +5°C° 0 mm 2 mps 693 mmHg 56%
    19:00 +6°C° 0 mm 1 mps 693 mmHg 56%
    20:00 +5°C° 0 mm 1 mps 693 mmHg 56%
    21:00 +5°C° 0 mm 1 mps 693 mmHg 56%
    22:00 +5°C° 0 mm 1 mps 693 mmHg 56%
    23:00 +5°C° 0 mm 1 mps 693 mmHg 56%

    17 December, Monday

    Time Temperature Precipitation Wind Pressure Humidity
    00:00 +5°C° 0 mm 1 mps 692 mmHg 56%
    01:00 +5°C° 0 mm 1 mps 692 mmHg 56%
    02:00 +6°C° 0 mm 1 mps 692 mmHg 56%
    03:00 +6°C° 0 mm 1 mps 691 mmHg 56%
    04:00 +6°C° 0 mm 1 mps 691 mmHg 57%
    05:00 +6°C° 0 mm 1 mps 691 mmHg 58%
    06:00 +6°C° 0 mm 1 mps 691 mmHg 59%
    07:00 +6°C° 0 mm 1 mps 691 mmHg 60%
    08:00 +7°C° 0 mm 1 mps 690 mmHg 60%
    09:00 +7°C° 0 mm 1 mps 690 mmHg 60%
    10:00 +8°C° 0 mm 1 mps 690 mmHg 60%
    11:00 +9°C° 0 mm 1 mps 689 mmHg 61%
    12:00 +9°C° 0 mm 1 mps 689 mmHg 61%
    13:00 +9°C° 0.1 mm 1 mps 688 mmHg 62%
    14:00 +9°C° 0.1 mm 1 mps 688 mmHg 64%
    15:00 +9°C° 0.1 mm 1 mps 687 mmHg 66%
    16:00 +8°C° 0.3 mm 1 mps 688 mmHg 69%
    17:00 +7°C° 0.3 mm 0 mps 688 mmHg 72%
    18:00 +6°C° 0.3 mm 0 mps 688 mmHg 75%
    19:00 +6°C° 0.4 mm 0 mps 688 mmHg 76%
    20:00 +6°C° 0.4 mm 0 mps 688 mmHg 77%
    21:00 +6°C° 0.4 mm 0 mps 688 mmHg 78%
    22:00 +5°C° 0.2 mm 0 mps 688 mmHg 78%
    23:00 +6°C° 0.2 mm 1 mps 688 mmHg 79%

    18 December, Tuesday

    Time Temperature Precipitation Wind Pressure Humidity
    00:00 +6°C° 0.2 mm 1 mps 688 mmHg 79%
    01:00 +6°C° 0.1 mm 1 mps 688 mmHg 79%
    02:00 +6°C° 0.1 mm 1 mps 688 mmHg 79%
    03:00 +5°C° 0.1 mm 1 mps 688 mmHg 79%
    04:00 +5°C° 0 mm 1 mps 688 mmHg 79%
    05:00 +5°C° 0 mm 1 mps 688 mmHg 79%
    06:00 +5°C° 0 mm 1 mps 688 mmHg 78%
    07:00 +5°C° 0 mm 1 mps 688 mmHg 76%
    08:00 +6°C° 0 mm 1 mps 689 mmHg 74%
    09:00 +6°C° 0 mm 1 mps 689 mmHg 73%
    10:00 +7°C° 0 mm 1 mps 689 mmHg 70%
    11:00 +8°C° 0 mm 1 mps 689 mmHg 68%
    12:00 +9°C° 0 mm 1 mps 689 mmHg 66%
    13:00 +9°C° 0 mm 1 mps 689 mmHg 65%
    14:00 +9°C° 0 mm 1 mps 689 mmHg 65%
    15:00 +9°C° 0 mm 1 mps 689 mmHg 64%
    16:00 +8°C° 0 mm 1 mps 689 mmHg 66%
    17:00 +7°C° 0 mm 1 mps 689 mmHg 68%
    18:00 +5°C° 0 mm 1 mps 690 mmHg 70%
    19:00 +5°C° 0 mm 1 mps 690 mmHg 70%
    20:00 +5°C° 0 mm 1 mps 690 mmHg 69%
    21:00 +4°C° 0 mm 1 mps 691 mmHg 69%
    22:00 +4°C° 0 mm 1 mps 691 mmHg 69%
    23:00 +4°C° 0 mm 1 mps 691 mmHg 69%
    Show more